| time (UTC) | temp C | wind direction | speed KPH | gust KPH | rain 1hr cm | rain 24hr cm | rain mn cm | humidity % | barometer mb |
| 20260510223057 | 17 | 9 | 0.0 | 8.0 | 0.00 | 0.00 | 0.00 | 30 | 1018.3 |
| 20260510221549 | 17 | 5 | 0.0 | 6.4 | 0.00 | 0.00 | 0.00 | 30 | 1018.2 |
| 20260510220056 | 18 | 5 | 1.6 | 16.1 | 0.00 | 0.00 | 0.00 | 29 | 1018.2 |
| 20260510214549 | 18 | 9 | 1.6 | 9.7 | 0.00 | 0.00 | 0.00 | 28 | 1017.9 |
| 20260510213047 | 18 | 5 | 1.6 | 9.7 | 0.00 | 0.00 | 0.00 | 28 | 1017.8 |
| 20260510211550 | 18 | 9 | 1.6 | 8.0 | 0.00 | 0.00 | 0.00 | 30 | 1017.6 |
| 20260510210048 | 17 | 5 | 1.6 | 8.0 | 0.00 | 0.00 | 0.00 | 30 | 1017.5 |
| 20260510204549 | 18 | 5 | 1.6 | 14.5 | 0.00 | 0.00 | 0.00 | 30 | 1017.6 |
| 20260510203051 | 18 | 360 | 1.6 | 14.5 | 0.00 | 0.00 | 0.00 | 31 | 1018.1 |
| 20260510201556 | 18 | 360 | 1.6 | 14.5 | 0.00 | 0.00 | 0.00 | 30 | 1018.4 |
| 20260510200051 | 18 | 0 | 1.6 | 12.9 | 0.00 | 0.00 | 0.00 | 31 | 1018.5 |
| 20260510194552 | 18 | 5 | 1.6 | 9.7 | 0.00 | 0.00 | 0.00 | 29 | 1018.1 |
| 20260510193051 | 18 | 0 | 1.6 | 8.0 | 0.00 | 0.00 | 0.00 | 29 | 1018.4 |
| 20260510191559 | 18 | 5 | 1.6 | 8.0 | 0.00 | 0.00 | 0.00 | 29 | 1018.2 |
| 20260510190101 | 18 | 9 | 3.2 | 12.9 | 0.00 | 0.00 | 0.00 | 29 | 1018.3 |
| 20260510184549 | 18 | 360 | 4.8 | 22.5 | 0.00 | 0.00 | 0.00 | 31 | 1018.3 |
| 20260510183049 | 18 | 360 | 1.6 | 14.5 | 0.00 | 0.00 | 0.00 | 30 | 1018.2 |
| 20260510181558 | 18 | 360 | 3.2 | 12.9 | 0.00 | 0.00 | 0.00 | 30 | 1018.2 |
| 20260510180055 | 18 | 360 | 1.6 | 14.5 | 0.00 | 0.00 | 0.00 | 32 | 1018.2 |
| 20260510174550 | 17 | 360 | 3.2 | 17.7 | 0.00 | 0.00 | 0.00 | 34 | 1018.5 |
| 20260510173053 | 17 | 5 | 3.2 | 12.9 | 0.00 | 0.00 | 0.00 | 36 | 1018.7 |
| 20260510171552 | 17 | 5 | 1.6 | 8.0 | 0.00 | 0.00 | 0.00 | 36 | 1018.9 |
| 20260510170048 | 17 | 360 | 1.6 | 9.7 | 0.00 | 0.00 | 0.00 | 35 | 1018.8 |
| 20260510164553 | 17 | 360 | 3.2 | 14.5 | 0.00 | 0.00 | 0.00 | 35 | 1018.8 |
| 20260510163055 | 17 | 0 | 1.6 | 6.4 | 0.00 | 0.00 | 0.00 | 31 | 1018.4 |
| 20260510161602 | 17 | 5 | 3.2 | 9.7 | 0.00 | 0.00 | 0.00 | 34 | 1018.3 |
| 20260510160133 | 17 | 5 | 1.6 | 14.5 | 0.00 | 0.00 | 0.00 | 32 | 1018.1 |
| 20260510154600 | 16 | 5 | 1.6 | 6.4 | 0.00 | 0.00 | 0.00 | 33 | 1018.1 |
| 20260510153057 | 16 | 5 | 1.6 | 8.0 | 0.00 | 0.00 | 0.00 | 39 | 1018.1 |
| 20260510151556 | 16 | 5 | 1.6 | 6.4 | 0.00 | 0.00 | 0.00 | 36 | 1018.0 |
| 20260510150051 | 15 | 5 | 3.2 | 8.0 | 0.00 | 0.00 | 0.00 | 39 | 1018.1 |
| 20260510144549 | 15 | 5 | 1.6 | 9.7 | 0.00 | 0.00 | 0.00 | 41 | 1018.0 |
| 20260510143054 | 14 | 360 | 0.0 | 8.0 | 0.00 | 0.00 | 0.00 | 39 | 1017.9 |
| 20260510141550 | 13 | 5 | 0.0 | 8.0 | 0.00 | 0.00 | 0.00 | 40 | 1017.8 |
| 20260510140108 | 13 | 360 | 4.8 | 8.0 | 0.00 | 0.00 | 0.00 | 41 | 1017.8 |
| 20260510134602 | 13 | 360 | 3.2 | 9.7 | 0.00 | 0.00 | 0.00 | 43 | 1017.6 |
| 20260510133053 | 12 | 360 | 3.2 | 8.0 | 0.00 | 0.00 | 0.00 | 47 | 1017.4 |
| 20260510131555 | 12 | 360 | 1.6 | 9.7 | 0.00 | 0.00 | 0.00 | 48 | 1017.2 |
| 20260510130053 | 11 | 360 | 1.6 | 8.0 | 0.00 | 0.00 | 0.00 | 54 | 1017.0 |
| 20260510124551 | 11 | 360 | 1.6 | 4.8 | 0.00 | 0.00 | 0.00 | 58 | 1017.1 |
| 20260510123056 | 10 | 0 | 0.0 | 3.2 | 0.00 | 0.00 | 0.00 | 65 | 1016.6 |
| 20260510121550 | 8 | 0 | 0.0 | 3.2 | 0.00 | 0.00 | 0.00 | 68 | 1016.6 |
| 20260510120104 | 7 | 0 | 0.0 | 1.6 | 0.00 | 0.00 | 0.00 | 74 | 1016.3 |
| 20260510114551 | 6 | 0 | 0.0 | 0.0 | 0.00 | 0.00 | 0.00 | 82 | 1016.2 |
| 20260510113049 | 5 | 0 | 0.0 | 0.0 | 0.00 | 0.00 | 0.00 | 84 | 1016.0 |
| 20260510111605 | 3 | 0 | 0.0 | 0.0 | 0.00 | 0.00 | 0.00 | 83 | 1015.8 |
| 20260510110056 | 3 | 0 | 0.0 | 0.0 | 0.00 | 0.00 | 0.00 | 81 | 1015.7 |
| 20260510104551 | 3 | 0 | 0.0 | 0.0 | 0.00 | 0.00 | 0.00 | 80 | 1015.2 |
| 20260510103053 | 3 | 0 | 0.0 | 0.0 | 0.00 | 0.00 | 0.00 | 78 | 1015.1 |
| 20260510101553 | 4 | 0 | 0.0 | 0.0 | 0.00 | 0.00 | 0.00 | 76 | 1015.0 |
| 20260510100055 | 4 | 0 | 0.0 | 0.0 | 0.00 | 0.00 | 0.00 | 74 | 1014.8 |
| 20260510094553 | 5 | 0 | 0.0 | 0.0 | 0.00 | 0.00 | 0.00 | 73 | 1014.5 |
| 20260510093110 | 5 | 0 | 0.0 | 0.0 | 0.00 | 0.00 | 0.00 | 70 | 1014.2 |
| 20260510091555 | 6 | 0 | 0.0 | 1.6 | 0.00 | 0.00 | 0.00 | 68 | 1014.1 |
| 20260510090059 | 6 | 0 | 0.0 | 1.6 | 0.00 | 0.00 | 0.00 | 65 | 1014.3 |
| 20260510084553 | 6 | 0 | 0.0 | 1.6 | 0.00 | 0.00 | 0.00 | 65 | 1014.3 |
| 20260510083109 | 6 | 0 | 0.0 | 4.8 | 0.00 | 0.00 | 0.00 | 66 | 1014.2 |
| 20260510081608 | 6 | 0 | 0.0 | 3.2 | 0.00 | 0.00 | 0.00 | 65 | 1014.0 |
| 20260510080055 | 7 | 5 | 0.0 | 4.8 | 0.00 | 0.00 | 0.00 | 67 | 1013.7 |
| 20260510074552 | 6 | 5 | 0.0 | 12.9 | 0.00 | 0.00 | 0.00 | 71 | 1013.5 |
| 20260510073050 | 5 | 5 | 0.0 | 4.8 | 0.00 | 0.00 | 0.00 | 83 | 1013.2 |
| 20260510071556 | 5 | 5 | 0.0 | 3.2 | 0.00 | 0.00 | 0.00 | 87 | 1012.9 |
| 20260510070056 | 5 | 0 | 0.0 | 0.0 | 0.00 | 0.00 | 0.00 | 87 | 1012.6 |
| 20260510064601 | 5 | 0 | 0.0 | 0.0 | 0.00 | 0.00 | 0.00 | 85 | 1012.5 |
| 20260510063053 | 5 | 0 | 0.0 | 0.0 | 0.00 | 0.00 | 0.00 | 84 | 1012.1 |
| 20260510061551 | 5 | 0 | 0.0 | 0.0 | 0.00 | 0.00 | 0.00 | 82 | 1012.0 |
| 20260510060050 | 6 | 0 | 0.0 | 0.0 | 0.00 | 0.00 | 0.00 | 81 | 1012.0 |
| 20260510054554 | 6 | 0 | 0.0 | 0.0 | 0.00 | 0.00 | 0.00 | 80 | 1012.1 |
| 20260510053051 | 6 | 0 | 0.0 | 0.0 | 0.00 | 0.00 | 0.00 | 78 | 1012.0 |
| 20260510051550 | 7 | 0 | 0.0 | 0.0 | 0.00 | 0.00 | 0.00 | 75 | 1011.7 |
| 20260510050046 | 8 | 0 | 0.0 | 0.0 | 0.00 | 0.00 | 0.00 | 71 | 1011.6 |
| 20260510044610 | 8 | 0 | 0.0 | 0.0 | 0.00 | 0.00 | 0.00 | 70 | 1011.1 |
| 20260510043048 | 8 | 0 | 0.0 | 0.0 | 0.00 | 0.00 | 0.00 | 67 | 1010.9 |
| 20260510041553 | 9 | 0 | 0.0 | 0.0 | 0.00 | 0.00 | 0.00 | 65 | 1010.6 |
| 20260510040050 | 10 | 0 | 0.0 | 0.0 | 0.00 | 0.00 | 0.00 | 64 | 1010.6 |
| 20260510034550 | 10 | 0 | 0.0 | 0.0 | 0.00 | 0.00 | 0.00 | 62 | 1010.3 |
| 20260510033048 | 10 | 0 | 0.0 | 0.0 | 0.00 | 0.00 | 0.00 | 60 | 1010.2 |
| 20260510031550 | 10 | 0 | 0.0 | 0.0 | 0.00 | 0.00 | 0.00 | 58 | 1010.1 |
| 20260510030049 | 11 | 0 | 0.0 | 0.0 | 0.00 | 0.00 | 0.00 | 57 | 1010.0 |
| 20260510024549 | 11 | 0 | 0.0 | 3.2 | 0.00 | 0.00 | 0.00 | 54 | 1009.7 |
| 20260510023052 | 12 | 0 | 0.0 | 1.6 | 0.00 | 0.00 | 0.00 | 53 | 1009.4 |
| 20260510021550 | 13 | 0 | 0.0 | 3.2 | 0.00 | 0.00 | 0.00 | 49 | 1008.9 |
| 20260510020052 | 13 | 0 | 0.0 | 4.8 | 0.00 | 0.00 | 0.00 | 48 | 1008.5 |
| 20260510014554 | 15 | 360 | 1.6 | 8.0 | 0.00 | 0.00 | 0.00 | 44 | 1008.2 |
| 20260510013056 | 17 | 5 | 1.6 | 8.0 | 0.00 | 0.00 | 0.00 | 41 | 1007.6 |
| 20260510011557 | 17 | 0 | 0.0 | 3.2 | 0.00 | 0.00 | 0.00 | 42 | 1007.0 |
| 20260510010131 | 18 | 360 | 0.0 | 4.8 | 0.00 | 0.00 | 0.00 | 39 | 1006.6 |
| 20260510004600 | 18 | 360 | 0.0 | 6.4 | 0.00 | 0.00 | 0.00 | 37 | 1006.4 |
| 20260510003052 | 19 | 0 | 1.6 | 12.9 | 0.00 | 0.00 | 0.00 | 35 | 1006.0 |
| 20260510001604 | 20 | 360 | 1.6 | 9.7 | 0.00 | 0.00 | 0.00 | 36 | 1005.8 |
| 20260509234633 | 21 | 5 | 3.2 | 16.1 | 0.00 | 0.00 | 0.00 | 33 | 1005.4 |
| 20260509233052 | 21 | 5 | 1.6 | 14.5 | 0.00 | 0.00 | 0.00 | 32 | 1005.1 |
| 20260509231553 | 21 | 5 | 3.2 | 12.9 | 0.00 | 0.00 | 0.00 | 31 | 1005.0 |
| 20260509230048 | 21 | 5 | 1.6 | 19.3 | 0.00 | 0.00 | 0.00 | 33 | 1004.7 |
| 20260509224553 | 21 | 9 | 3.2 | 20.9 | 0.00 | 0.00 | 0.00 | 33 | 1004.7 |